Location: Unspecified
(50.7693°N, 0.0000°E)
Time: 06:50:47
(UTC+00:00)

Transit 2A - Pass Details

Date: 19 August 2020
Orbit: 591 x 967 km, 66.7° (Epoch: 20 September)

Event Time Altitude Azimuth Distance (km) Brightness Sun altitude
Rises 20:49:00 0° 274° (W) 3,560 10.4 -14.0°
Reaches altitude 10° 20:52:03 10° 288° (WNW) 2,660 9.9 -14.4°
Maximum altitude 20:56:58 23° 340° (NNW) 1,909 8.8 -14.9°
Drops below altitude 10° 21:02:00 10° 32° (NNE) 2,717 9.0 -15.5°
Sets 21:05:10 0° 46° (NE) 3,654 9.5 -15.9°
